User: anonymous   Login
Location: Aressy
(43.2833°N, 0.3167°W)
Time: 11:53:44
(UTC+00:00)
Language:

Iridium 4 Rocket - Orbit

View from above orbital plane
View from above orbital plane
View from above satellite
View from above satellite

Ground track
Ground track

The orbit data is extracted from the following two-line orbital elements,

1 24797U 97020F   21113.19421594  .00000117  00000-0  20490-4 0  9998
2 24797  86.9033 198.3826 0222964 309.0239 107.2541 14.44238583260851
Epoch (UTC): 23 April 2021 04:39:40
Eccentricity: 0.0222964
inclination: 86.9033°
perigee height: 586 km
apogee height: 903 km
right ascension of ascending node: 198.3826°
argument of perigee: 309.0239°
revolutions per day: 14.44238583
mean anomaly at epoch: 107.2541°
orbit number at epoch: 26085

The dashed part of the orbit path shows where the satellite is in the earth's shadow,  

DLR